Showing default

ION SCV-010, 56192

Orbit data source: Space-Track

ION SCV-010, 56192 is a payload satellite owned by D-ORBIT (IT) in SSO that was launched on Sat, 15 Apr 2023 UTC via an FALCON 9 launch vehicle from the Air Force Western Test Range (AFWTR). Payload-class satellites include a variety of spacecraft equipped with specific instruments for various scientific and technological missions. These include communications satellites like Starlink; space stations such as the ISS; scientific satellites like the Hubble; Earth observation satellites from companies like Planet Labs, Umbra, and HawkEye 360; GPS; miniature CubeSats for education and research; and military/defense satellites.

Loading next visibility...
Identifier
56192, 2023-054Q
Orbit
SSO
Country
Flag of ITIT
Related business
Manufacturer
D-ORBIT
Mission
Operational Commercial Technology
Bus & Motor
ION-SC, PM200
Mass
220 kg wet, 150 kg dry
Launch date (UTC)
2023-04-15 (3 years ago)
Launch vehicle
FALCON 9
Launch site
Air Force Western Test Range (AFWTR)
Object type
Payload
Rocket body
Debris
Shape & HBR
Box, 0.2 m
Radar Cross Section
0.240 m², Medium (>0.1 m² and < 1m²)

Expand to show TLE details & history
Last TLE update: 10 hours ago

TLE from 10 hours ago
0 ION SCV-010
1 56192U 23054Q   26133.27585426  .00002887  00000-0  11534-3 0  9993
2 56192  97.3828  23.2226 0012066 335.9013  24.1659 15.25880521170875
Epoch: 2026-05-13T06:37Z
TLE epoch observation values (Epoch: 2026-05-13T06:37:13.808Z)
Latitude
-0.00003°
Longitude
52.87686°
Altitude
483.683 km
Speed
7.628 km/s
True Right ascension
01h 32m 53s
True Declination
0° 00' 00"
Sunlit
Object was in daylight at epoch
Visualization orbit readout
Latitude
Unknown
Longitude
Unknown
Altitude
Unknown
Speed
Unknown
Apparent Right ascension
Unknown
Apparent Declination
Unknown
Sunlit
N/A
Visualization observer readout
Local Sidereal Time
01:15:28
Azimuth
Unknown
Elevation
Unknown
Doppler factor
Unknown
Orbital elements
Apogee altitude
493.381 km
Perigee altitude
476.818 km
Semi-major axis
6,863.237 km
Eccentricity
0.00121
Inclination
97.3828°
RAAN
23.2226°
Arg. of periapsis
335.9013°
True anomaly
24.22258°
Mean anomaly
24.1659°
Eccentric anomaly
24.19423°
Mean motion
3.81724 °/min
Orbital period
94.31 mins
BSTAR
0.00011534
Loading maneuver chart data...
Computing Atmospheric mass density...

Documentation

Showing up to 5 results
|